TimeMDT,TemperatureF,Dew PointF,Humidity,Sea Level PressureIn,VisibilityMPH,Wind Direction,Wind SpeedMPH,Gust SpeedMPH,PrecipitationIn,Events,Conditions,WindDirDegrees,DateUTC
8:32 AM,3.2,-5.8,66,29.85,-9999.0,West,20.7,-,N/A,,Overcast,280,2013-04-18 14:32:00
8:52 AM,3.2,-5.8,66,29.84,-9999.0,North,-9999.0,-,N/A,,Overcast,0,2013-04-18 14:52:00
9:12 AM,3.2,-5.8,66,29.85,-9999.0,North,-9999.0,-,N/A,,Overcast,0,2013-04-18 15:12:00
9:32 AM,5.0,-4.0,66,29.85,-9999.0,North,-9999.0,-,N/A,,Overcast,0,2013-04-18 15:32:00
9:52 AM,5.0,-4.0,66,29.87,-9999.0,North,-9999.0,-,N/A,,Overcast,0,2013-04-18 15:52:00
10:12 AM,5.0,-4.0,66,29.87,-9999.0,North,-9999.0,-,N/A,,Overcast,0,2013-04-18 16:12:00
10:32 AM,5.0,-4.0,66,29.88,-9999.0,North,-9999.0,-,N/A,,Overcast,0,2013-04-18 16:32:00
10:52 AM,5.0,-4.0,66,29.89,-9999.0,North,-9999.0,-,N/A,,Overcast,0,2013-04-18 16:52:00
11:12 AM,5.0,-2.2,72,29.89,-9999.0,WNW,29.9,-,N/A,,Overcast,290,2013-04-18 17:12:00
11:32 AM,5.0,-2.2,72,29.89,-9999.0,West,29.9,38.0,N/A,,Overcast,280,2013-04-18 17:32:00
11:52 AM,5.0,-0.4,78,29.89,-9999.0,West,33.4,39.1,N/A,,Overcast,280,2013-04-18 17:52:00
12:12 PM,5.0,-0.4,78,29.90,-9999.0,WNW,28.8,40.3,N/A,,Overcast,290,2013-04-18 18:12:00
12:32 PM,6.8,-0.4,72,29.90,-9999.0,West,34.5,39.1,N/A,,Overcast,280,2013-04-18 18:32:00
12:52 PM,5.0,-0.4,78,29.91,-9999.0,West,28.8,39.1,N/A,,Overcast,270,2013-04-18 18:52:00
1:12 PM,6.8,-0.4,72,29.91,-9999.0,WNW,31.1,38.0,N/A,,Overcast,290,2013-04-18 19:12:00
1:32 PM,6.8,-0.4,72,29.92,-9999.0,WNW,24.2,33.4,N/A,,Overcast,290,2013-04-18 19:32:00
1:52 PM,8.6,-0.4,67,29.93,-9999.0,WNW,23.0,33.4,N/A,,Overcast,290,2013-04-18 19:52:00
2:32 PM,8.6,1.4,73,29.95,-9999.0,WNW,24.2,33.4,N/A,,Overcast,290,2013-04-18 20:32:00
2:52 PM,8.6,1.4,73,29.96,-9999.0,North,-9999.0,-,N/A,,Overcast,0,2013-04-18 20:52:00
3:12 PM,8.6,-0.4,67,29.96,-9999.0,WNW,23.0,-,N/A,,Overcast,290,2013-04-18 21:12:00
3:32 PM,8.6,1.4,73,29.97,-9999.0,West,15.0,-,N/A,,Overcast,280,2013-04-18 21:32:00
3:52 PM,8.6,1.4,73,29.98,-9999.0,West,21.9,-,N/A,,Overcast,280,2013-04-18 21:52:00
4:12 PM,8.6,3.2,79,29.99,-9999.0,West,15.0,23.0,N/A,,Overcast,280,2013-04-18 22:12:00
4:32 PM,8.6,1.4,73,29.99,-9999.0,West,16.1,31.1,N/A,,Overcast,280,2013-04-18 22:32:00
4:52 PM,8.6,1.4,73,29.99,-9999.0,WNW,19.6,28.8,N/A,,Overcast,290,2013-04-18 22:52:00
5:12 PM,8.6,1.4,73,29.99,-9999.0,WNW,26.5,32.2,N/A,,Overcast,290,2013-04-18 23:12:00
5:32 PM,8.6,1.4,73,30.01,-9999.0,North,-9999.0,-,N/A,,Overcast,0,2013-04-18 23:32:00
5:52 PM,6.8,-0.4,72,30.02,-9999.0,North,-9999.0,-,N/A,,Overcast,0,2013-04-18 23:52:00
6:12 PM,6.8,-0.4,72,30.03,-9999.0,North,-9999.0,-,N/A,,Overcast,0,2013-04-19 00:12:00
6:32 PM,8.6,1.4,73,30.04,-9999.0,North,-9999.0,-,N/A,,Overcast,0,2013-04-19 00:32:00
6:52 PM,6.8,-0.4,72,30.05,-9999.0,North,-9999.0,-,N/A,,Overcast,0,2013-04-19 00:52:00
7:12 PM,6.8,-0.4,72,30.06,-9999.0,North,-9999.0,-,N/A,,Overcast,0,2013-04-19 01:12:00
7:32 PM,6.8,-0.4,72,30.07,-9999.0,North,-9999.0,-,N/A,,Overcast,0,2013-04-19 01:32:00
7:52 PM,5.0,-0.4,78,30.08,-9999.0,North,-9999.0,-,N/A,,Overcast,0,2013-04-19 01:52:00
8:12 PM,5.0,-2.2,72,30.08,-9999.0,North,-9999.0,-,N/A,,Mostly Cloudy,0,2013-04-19 02:12:00
8:32 PM,5.0,-0.4,78,30.10,-9999.0,North,-9999.0,-,N/A,,Overcast,0,2013-04-19 02:32:00
8:52 PM,5.0,-0.4,78,30.11,-9999.0,North,-9999.0,-,N/A,,Overcast,0,2013-04-19 02:52:00
9:32 PM,5.0,-0.4,78,30.12,-9999.0,West,19.6,-,N/A,,Overcast,280,2013-04-19 03:32:00
9:52 PM,5.0,-0.4,78,30.12,-9999.0,West,18.4,-,N/A,,Unknown,270,2013-04-19 03:52:00
10:12 PM,5.0,-0.4,78,30.12,-9999.0,North,-9999.0,-,N/A,,Overcast,0,2013-04-19 04:12:00
10:32 PM,6.8,-0.4,72,30.12,-9999.0,West,25.3,-,N/A,,Unknown,260,2013-04-19 04:32:00
10:52 PM,6.8,-0.4,72,30.11,-9999.0,West,21.9,-,N/A,,Unknown,270,2013-04-19 04:52:00
11:12 PM,5.0,-0.4,78,30.10,-9999.0,West,24.2,-,N/A,,Unknown,260,2013-04-19 05:12:00
11:32 PM,6.8,-0.4,72,30.10,-9999.0,West,24.2,-,N/A,,Overcast,260,2013-04-19 05:32:00
11:52 PM,6.8,-0.4,72,30.10,-9999.0,North,-9999.0,-,N/A,,Overcast,0,2013-04-19 05:52:00